Regional Weather Roundup
Issued by NWS

Home | Current Version | Previous Version | Graphics & Text | Print | Product List | Glossary On
Versions: 1 2 3 4 5 6 7 8 9 10 11 12 13 14 15 16 17 18 19 20 21 22 23 24 25 26 27 28 29 30 31 32 33 34 35 36 37 38 39 40 41 42 43 44 45 46 47 48 49
000
ASUS43 KDMX 290607
RWRIA

WEATHER ROUNDUP FOR IOWA
NATIONAL WEATHER SERVICE DES MOINES IA
1200 AM CST MON DEC 29 2014

NOTE: "FAIR" INDICATES FEW OR NO CLOUDS BELOW 12,000 FEET WITH NO
SIGNIFICANT WEATHER AND/OR OBSTRUCTIONS TO VISIBILITY.

* - THESE STATIONS ARE NOT NWS STATIONS...THUS NOT UNDER NWS
QUALITY CONTROL.  THEY ALSO DO NOT REPORT WEATHER SUCH
AS PRECIPITATION OR FOG.

IAZ001>003-012>014-020>022-031>034-043>046-290700-
   NORTHWEST IOWA

CITY           SKY/WX    TMP DP  RH WIND       PRES   REMARKS
CARROLL *      CLOUDY    21  18  86 NE12      30.24S WCI   9
CHEROKEE *     CLOUDY    19  18  95 NE8       30.27S WCI   9
DENISON *      CLOUDY    21  19  93 NE10      30.23R WCI  10
LE MARS *      LGT SNOW  19  18  93 NE12      30.28R WCI   7
ORANGE CITY *  LGT SNOW  21  18  86 NE8       30.26R WCI  12
SHELDON *      FLURRIES  19  18  93 NE13      30.27R WCI   7
SIOUX CITY     LGT SNOW  22  17  81 NE7       30.28R WCI  13
6HR MIN TEMP:  20; 6HR MAX TEMP:  23; 6HR PCP: TRACE;

SPENCER        CLOUDY    19  15  84 NE10      30.29R WCI   7
6HR MIN TEMP:  18; 6HR MAX TEMP:  20;

STORM LAKE *   CLOUDY    18  16  93 NE17      30.25S FOG     WCI   2
$$

IAZ055>058-069>071-079>083-090>094-290700-
   SOUTHWEST IOWA

CITY           SKY/WX    TMP DP  RH WIND       PRES   REMARKS
ATLANTIC *     MOCLDY    25  23  93 NE8       30.21R WCI  16
AUDUBON *      CLOUDY    23  18  80 NE6       30.23R WCI  16
CLARINDA *     CLOUDY    30  27  86 CALM      30.21S
COUNCIL BLFS * CLOUDY    25  25 100 N9        30.20R WCI  15
CRESTON *      CLOUDY    28  25  86 NE10      30.19S WCI  19
HARLAN  *      CLOUDY    23  23 100 N7        30.25R WCI  15
LAMONI         CLOUDY    30  22  72 N3        30.19S
6HR MIN TEMP:  29; 6HR MAX TEMP:  33;

RED OAK *      CLOUDY    28  27  93 N6        30.20R WCI  22
SHENANDOAH *   CLOUDY    28  27  93 NE6       30.20R WCI  22
$$

IAZ047>049-059>061-072>074-084-290700-
   CENTRAL IOWA

CITY           SKY/WX    TMP DP  RH WIND       PRES   REMARKS
AMES           CLOUDY    25  21  85 N7        30.25R WCI  17
6HR MIN TEMP:  25; 6HR MAX TEMP:  28;

ANKENY *       CLOUDY    27  25  93 N7        30.24S WCI  19
CHARITON *     CLOUDY    28  25  86 NE3       30.21R
DES MOINES     MOCLDY    29  22  75 NE7       30.23S WCI  22
6HR MIN TEMP:  28; 6HR MAX TEMP:  32;

GRINNELL*      CLOUDY    27  23  86 NE5       30.24R WCI  21
KNOXVILLE *    CLOUDY    28  21  74 NE6       30.21R WCI  22
MARSHALLTOWN   CLOUDY    24  21  88 NE9       30.24R WCI  14
6HR MIN TEMP:  24; 6HR MAX TEMP:  28;

PELLA *        MOCLDY    29  22  74 NE3       30.24S
PERRY *        CLOUDY    27  25  93 N6        30.25R WCI  20
$$

IAZ004>006-015-016-023>025-035-036-290700-
   NORTH CENTRAL IOWA

CITY           SKY/WX    TMP DP  RH WIND       PRES   REMARKS
ALGONA *       CLOUDY    18  16  93 NE9       30.30R WCI   6
CLARION *      CLOUDY    19  18  93 NE14      30.27S WCI   6
ESTHERVILLE    CLOUDY    17  15  92 N10       30.29R FOG     WCI   5
6HR MIN TEMP:  15; 6HR MAX TEMP:  17;

FORT DODGE *   CLOUDY    19  14  79 NE7       30.28R WCI  10
MASON CITY     CLOUDY    17  13  84 N6        30.30R WCI   9
6HR MIN TEMP:  11; 6HR MAX TEMP:  17;

FOREST CITY *  CLOUDY    19  14  79 NE6       30.29R WCI  11
IOWA FALLS *   CLOUDY    21  18  86 NE8       30.27R WCI  12
$$

IAZ007>011-017>019-026>030-037>042-050>054-066-290700-
   NORTHEAST IOWA

CITY           SKY/WX    TMP DP  RH WIND       PRES   REMARKS
CEDAR RAPIDS   CLOUDY    26  20  77 NE6       30.25R WCI  19
6HR MIN TEMP:  23; 6HR MAX TEMP:  29;

CHARLES CITY * CLOUDY    19  16  86 NE9       30.29R WCI   9
CLINTON *      MOCLDY    25  18  74 N7        30.28R WCI  17
DECORAH *      MOCLDY    19  14  79 NE7       30.27R WCI  10
DUBUQUE        CLOUDY    24  19  81 NE6       30.24S WCI  17
6HR MIN TEMP:  20; 6HR MAX TEMP:  26;

MONTICELLO *   CLOUDY    25  25 100 CALM      30.27R
OELWEIN *      CLOUDY    23  19  86 NE8       30.27R WCI  14
WATERLOO       CLOUDY    23  19  85 NE7       30.28R WCI  15
6HR MIN TEMP:  22; 6HR MAX TEMP:  25;

$$

IAZ064-065-067-068-078-290700-
   EAST CENTRAL IOWA

CITY           SKY/WX    TMP DP  RH WIND       PRES   REMARKS
DAVENPORT      MOCLDY    25  19  78 N3        30.26R
6HR MIN TEMP:  22; 6HR MAX TEMP:  29;

IOWA CITY      CLOUDY    27  18  69 NE5       30.27R WCI  22
6HR MIN TEMP:  21; 6HR MAX TEMP:  28;

MT. PLEASANT * MOCLDY    26  20  80 NE3       30.24R
MUSCATINE *    PTCLDY    25  21  86 N6        30.27S WCI  18
QUAD CITIES    PTCLDY    22  19  89 CALM      30.26R
6HR MIN TEMP:  21; 6HR MAX TEMP:  27;

$$

IAZ062-063-075>077-085>089-095>099-290700-
   SOUTHEAST IOWA

CITY           SKY/WX    TMP DP  RH WIND       PRES   REMARKS
BURLINGTON       N/A     27  22  81 N5        30.24S WCI  22
6HR MIN TEMP:  24; 6HR MAX TEMP:  29;

FAIRFIELD *    CLOUDY    27  19  74 NE7       30.23S WCI  19
FORT MADISON * CLEAR     27  21  80 CALM      30.24R
KEOKUK *       CLEAR     25  21  86 CALM      30.23R
OSKALOOSA *    CLOUDY    27  22  81 E7        30.23S WCI  20
CENTERVILLE *  PTCLDY    28  25  86 CALM      30.22S
OTTUMWA        CLOUDY    28  21  75 E7        30.22S WCI  21
6HR MIN TEMP:  26; 6HR MAX TEMP:  29;

WASHINGTON *   CLOUDY    27  25  93 NE7       30.24S WCI  19
$$

ABBREVIATIONS USED IN REMARKS
   TC - TEMPERATURES IN CELSIUS
  WCI - WIND CHILL INDEX
   HX - HEAT INDEX
  VSB - VISIBILITY
$$




USA.gov is the U.S. government's official web portal to all federal, state and local government web resources and services.